Kalamazoo, MI

5:11 PM EST on February 21, 2018 (GMT -0500)
Kalamazoo-Battle Creek International

Weather History for KAZO - June, 2013

Change the Weather History Date:

Tuesday, June 11, 2013

  Actual Average Record
Temperature  
Mean Temperature 71 °F 67 °F  
Max Temperature 83 °F 78 °F 94 °F (1956)
Min Temperature 59 °F 56 °F 40 °F (1972)
Degree Days  
Heating Degree Days 0 2  
Month to date heating degree days 36 32  
Since 1 June heating degree days 36 32  
Since 1 July heating degree days 6308 6400  
Cooling Degree Days 6 4  
Month to date cooling degree days 18 37  
Year to date cooling degree days 98 78  
Since 1 June cooling degree days 18 37  
Growing Degree Days 20 (Base 50)    
Moisture  
Dew Point 61 °F    
Average Humidity 76    
Maximum Humidity 100    
Minimum Humidity 51    
Precipitation  
Precipitation 0.00 in 0.12 in 0.67 in (1957)
Month to date precipitation 0.82 1.47  
Year to date precipitation 15.88 13.91  
Sea Level Pressure  
Sea Level Pressure 29.89 in    
Wind  
Wind Speed 5 mph (WNW)    
Max Wind Speed 14 mph    
Max Gust Speed 17 mph    
Visibility 6 miles    
Events      
T = Trace of Precipitation, MM = Missing Value Source: NWS Daily Summary

Daily Weather History Graph

Daily Weather History Graph

Search for Another Location

Airport or City:

Trip Planner

Search our weather history database for the weather conditions in past years. The results will help you decide how hot, cold, wet, or windy it might be!

Date:

Astronomy

Jun. 11, 2013 Rise Set
Actual Time 6:05 AM EDT 9:18 PM EDT
Civil Twilight 5:30 AM EDT 9:53 PM EDT
Nautical Twilight 4:46 AM EDT 10:37 PM EDT
Astronomical Twilight 3:52 AM EDT 11:31 PM EDT
Moon 8:50 AM EDT (6/11) 11:18 PM EDT (6/11)
Length of Visible Light 16h 22m
Length of Day
15h 13m
Waxing Crescent, 8% of the Moon is Illuminated
Jun 11
Waxing Crescent
Jun 16
First Quarter
Jun 23
Full
Jun 30
Last Quarter
Jul 8
New

Hourly Weather History & Observations

Time (EDT) Temp. Heat Index Dew Point Humidity Pressure Visibility Wind Dir Wind Speed Gust Speed Precip Events Conditions
12:53 AM 63.0 °F - 62.1 °F 97% 29.85 in 3.0 mi West 3.5 mph - N/A   Overcast
1:53 AM 62.1 °F - 61.0 °F 96% 29.85 in 4.0 mi NW 5.8 mph - N/A   Overcast
2:21 AM 62.6 °F - 60.8 °F 94% 29.86 in 2.0 mi WNW 3.5 mph - N/A   Overcast
2:28 AM 62.6 °F - 60.8 °F 94% 29.86 in 1.5 mi WNW 3.5 mph - N/A   Overcast
2:53 AM 61.0 °F - 61.0 °F 100% 29.86 in 1.5 mi West 3.5 mph - N/A   Overcast
3:05 AM 60.8 °F - 60.8 °F 100% 29.86 in 2.0 mi West 3.5 mph - N/A   Overcast
3:20 AM 60.8 °F - 60.8 °F 100% 29.87 in 4.0 mi West 3.5 mph - N/A   Overcast
3:53 AM 60.1 °F - 57.9 °F 93% 29.87 in 5.0 mi WNW 3.5 mph - N/A   Overcast
4:53 AM 60.1 °F - 59.0 °F 96% 29.88 in 5.0 mi WNW 6.9 mph - N/A   Overcast
5:53 AM 60.1 °F - 59.0 °F 96% 29.89 in 5.0 mi WNW 5.8 mph - N/A   Overcast
6:01 AM 60.8 °F - 57.2 °F 88% 29.90 in 2.0 mi WNW 5.8 mph - N/A   Overcast
6:44 AM 59.0 °F - 57.2 °F 94% 29.91 in 1.0 mi WNW 4.6 mph - N/A   Overcast
6:53 AM 59.0 °F - 57.9 °F 96% 29.92 in 1.0 mi WNW 4.6 mph - N/A   Overcast
7:33 AM 60.8 °F - 59.0 °F 94% 29.92 in 2.0 mi Calm Calm - N/A   Overcast
7:53 AM 60.1 °F - 59.0 °F 96% 29.92 in 2.5 mi WNW 3.5 mph - N/A   Overcast
8:53 AM 62.1 °F - 60.1 °F 93% 29.93 in 2.5 mi West 5.8 mph - N/A   Overcast
9:23 AM 64.4 °F - 60.8 °F 88% 29.94 in 5.0 mi Calm Calm - N/A   Mostly Cloudy
9:53 AM 64.9 °F - 61.0 °F 87% 29.94 in 9.0 mi Variable 3.5 mph - N/A   Mostly Cloudy
10:19 AM 66.2 °F - 60.8 °F 83% 29.94 in 9.0 mi Variable 4.6 mph - N/A   Scattered Clouds
10:53 AM 70.0 °F - 63.0 °F 78% 29.93 in 10.0 mi WNW 5.8 mph - N/A   Partly Cloudy
11:53 AM 73.9 °F - 64.0 °F 71% 29.93 in 10.0 mi Variable 4.6 mph - N/A   Partly Cloudy
12:53 PM 75.9 °F - 63.0 °F 64% 29.92 in 7.0 mi Calm Calm - N/A   Scattered Clouds
1:53 PM 80.1 °F 81.7 °F 64.0 °F 58% 29.91 in 10.0 mi SW 8.1 mph - N/A   Mostly Cloudy
2:53 PM 81.0 °F 82.5 °F 64.0 °F 56% 29.89 in 10.0 mi West 8.1 mph - N/A   Partly Cloudy
3:53 PM 82.0 °F 83.8 °F 64.9 °F 56% 29.87 in 10.0 mi Variable 5.8 mph - N/A   Scattered Clouds
4:53 PM 81.0 °F 82.5 °F 64.0 °F 56% 29.86 in 10.0 mi WSW 10.4 mph - N/A   Partly Cloudy
5:53 PM 82.0 °F 83.1 °F 63.0 °F 52% 29.86 in 10.0 mi West 9.2 mph - N/A   Clear
6:53 PM 78.1 °F - 60.1 °F 54% 29.86 in 10.0 mi WNW 10.4 mph - N/A   Partly Cloudy
7:53 PM 79.0 °F - 62.1 °F 56% 29.85 in 10.0 mi West 4.6 mph - N/A   Clear
8:53 PM 75.0 °F - 63.0 °F 66% 29.86 in 10.0 mi NW 4.6 mph - N/A   Clear
9:53 PM 72.0 °F - 63.0 °F 73% 29.87 in 10.0 mi Calm Calm - N/A   Clear
10:53 PM 69.1 °F - 64.0 °F 84% 29.88 in 10.0 mi Calm Calm - N/A   Clear
11:53 PM 66.9 °F - 63.0 °F 87% 29.87 in 10.0 mi Calm Calm - N/A   Clear